Simultaneous Nadir Overpasses (SNOs) Predictions

Prediction of SNOs between AQUA and METOP-C Satellite Orbit:

Table of predicted SNOs for the next 14.0 days since TLE Epoch: 8/21/2021
Index Date (AQUA) Time (AQUA) Lat,Lon (AQUA) SZA (AQUA ) Date (METOP-C) Time (METOP-C) Lat,Lon (METOP-C) SZA (METOP-C ) Distance(km) Time Diff (sec)
1 08/22/2021 08:18:06 -73.78,-130.23 117.86 08/22/2021 08:17:43 -73.76,-130.23 117.87 2.61 23
2 08/22/2021 09:07:35 73.86, 37.24 62.24 08/22/2021 09:08:22 73.84, 37.30 62.22 2.54 47
3 08/25/2021 03:02:42 73.11, 129.99 62.38 08/25/2021 03:01:36 73.09, 127.34 62.46 85.75 66
4 08/25/2021 03:52:20 -73.76, -63.73 116.93 08/25/2021 03:52:03 -73.79, -63.75 116.90 3.44 17
5 08/25/2021 04:41:49 73.84, 103.73 63.17 08/25/2021 04:42:42 73.86, 103.76 63.19 3.08 53
6 08/27/2021 22:37:00 73.36,-164.08 63.62 08/27/2021 22:35:51 73.31,-165.77 63.64 53.97 69
7 08/27/2021 23:26:34 -73.79, 2.64 115.92 08/27/2021 23:26:23 -73.76, 2.60 115.94 3.14 11
8 08/28/2021 00:16:02 73.83, 170.20 64.14 08/28/2021 00:17:02 73.84, 170.11 64.14 2.94 60
9 08/30/2021 18:11:19 73.61, -98.18 64.88 08/30/2021 18:10:07 73.53, -98.86 64.83 23.42 72
10 08/30/2021 19:00:48 -73.78, 69.11 114.94 08/30/2021 19:00:43 -73.79, 69.07 114.92 1.82 5
11 08/30/2021 19:50:17 73.87,-123.46 65.18 08/30/2021 19:51:22 73.85,-123.44 65.16 2.17 65
12 09/02/2021 13:45:35 73.72, -31.96 66.01 09/02/2021 13:44:23 73.75, -31.95 66.05 2.94 72
13 09/02/2021 14:35:03 -73.82, 135.45 113.87 09/02/2021 14:35:03 -73.81, 135.53 113.89 2.84 0



Historial Predications of SNOs between AQUA and METOP-C
